Powrót do katalogu

SKYCRAFT 4E

AktywnyNaukaSSO
NORAD 65227·PAYLOAD·🇦🇺 Australia

Wystrzelony Jul 23, 2025 z Vandenberg Space Force Base

Loading…

Następne Przeloty (najbliższe 24 godziny)

TLE

ŚwieżeSource: Space-Track

Epoka: Sep 14, 2026, 14:30 UTC

1 65227U 25154L   26257.60436157  .00005087  00000-0  42584-3 0  9999
2 65227  97.6620 320.8441 0003903 350.6441   9.4708 14.98880487 60724

Śledź SKYCRAFT 4E w czasie rzeczywistym z AllMySat

Download on the App Store